User: anonymous   Login
Location: Unspecified
(0.0000°N, 0.0000°E)
Time: 02:06:41
(UTC+00:00)
Language:

Nimbus 4 - Orbit

View from above orbital plane
View from above orbital plane
View from above satellite
View from above satellite

Ground track
Ground track

The orbit data is extracted from the following two-line orbital elements,

1  4362U 70025A   18320.77407549 -.00000034  00000-0  19203-4 0  9993
2  4362  99.9856 227.1396 0006818 266.3769 159.6013 13.44598425385102
Epoch (UTC): 16 November 2018 18:34:40
Eccentricity: 0.0006818
inclination: 99.9856°
perigee height: 1087 km
apogee height: 1097 km
right ascension of ascending node: 227.1396°
argument of perigee: 266.3769°
revolutions per day: 13.44598425
mean anomaly at epoch: 159.6013°
orbit number at epoch: 38510

The dashed part of the orbit path shows where the satellite is in the earth's shadow,  

DLR